This is the latest recevied weather packets stored in our database for station/object N5LSN. If no packets are shown the sender has not sent any weather packets the latest 10 day(s).
| Time | Temp. | Humidity | Pressure | Rain* | Wind** | Luminosity | Snow |
|---|---|---|---|---|---|---|---|
| 1777826649 | 21.11° C | 47% | 1021.6 hPa | 0 mm | - | 910 W/m² | - |
| 1777826345 | 21.11° C | 46% | 1021.6 hPa | 0 mm | - | 900 W/m² | - |
| 1777826044 | 21.11° C | 48% | 1021.7 hPa | 0 mm | - | 895 W/m² | - |
| 1777825740 | 21.11° C | 49% | 1021.8 hPa | 0 mm | - | 888 W/m² | - |
| 1777825438 | 20° C | 49% | 1022.1 hPa | 0 mm | - | 880 W/m² | - |
| 1777825135 | 20.56° C | 47% | 1021.7 hPa | 0 mm | - | 872 W/m² | - |
| 1777824831 | 20.56° C | 46% | 1021.9 hPa | 0 mm | - | 864 W/m² | - |
| 1777824528 | 20.56° C | 49% | 1021.8 hPa | 0 mm | - | 854 W/m² | - |
| 1777824224 | 20.56° C | 51% | 1021.9 hPa | 0 mm | - | 849 W/m² | - |
| 1777823919 | 20° C | 51% | 1022.1 hPa | 0 mm | - | 836 W/m² | - |
| 1777823617 | 20° C | 55% | 1022.1 hPa | 0 mm | - | 826 W/m² | - |
| 1777823314 | 20° C | 54% | 1022 hPa | 0 mm | - | 816 W/m² | - |
| 1777823012 | 19.44° C | 54% | 1022.1 hPa | 0 mm | - | 806 W/m² | - |
| 1777822710 | 19.44° C | 56% | 1022 hPa | 0 mm | - | 796 W/m² | - |
| 1777822408 | 18.89° C | 56% | 1022.1 hPa | 0 mm | - | 782 W/m² | - |
| 1777822105 | 18.89° C | 57% | 1022 hPa | 0 mm | - | 768 W/m² | - |
| 1777821802 | 18.33° C | 58% | 1022.1 hPa | 0 mm | - | 738 W/m² | - |
| 1777821499 | 18.33° C | 57% | 1022.3 hPa | 0 mm | - | 740 W/m² | - |
| 1777821197 | 17.78° C | 60% | 1022.2 hPa | 0 mm | - | 726 W/m² | - |
| 1777820894 | 18.33° C | 61% | 1022.4 hPa | 0 mm | - | 707 W/m² | - |
| 1777820589 | 17.78° C | 61% | 1022.5 hPa | 0 mm | - | 694 W/m² | - |
| 1777820287 | 16.67° C | 64% | 1022.4 hPa | 0 mm | - | 675 W/m² | - |
| 1777819984 | 16.67° C | 64% | 1022.6 hPa | 0 mm | - | 660 W/m² | - |
| 1777819681 | 17.22° C | 67% | 1022.4 hPa | 0 mm | - | 643 W/m² | - |
| 1777819380 | 16.67° C | 63% | 1022.6 hPa | 0 mm | - | 625 W/m² | - |
* Rain latest hour (hover to see other rain measurements)
** Current wind speed in m/s (hover to see current wind gust speed)